This is the latest recevied weather packets stored in our database for station/object AA8FM-13. If no packets are shown the sender has not sent any weather packets the latest 10 day(s).
| Time | Temp. | Humidity | Pressure | Rain* | Wind** | Luminosity | Snow |
|---|---|---|---|---|---|---|---|
| 1778198202 | 13.89° C | 46% | 1008.8 hPa | 0 mm | - | 12 W/m² | - |
| 1778197900 | 13.89° C | 46% | 1009 hPa | 0 mm | - | 14 W/m² | - |
| 1778197596 | 13.89° C | 47% | 1008.8 hPa | 0 mm | - | 17 W/m² | - |
| 1778197293 | 13.89° C | 46% | 1008.8 hPa | 0 mm | - | 19 W/m² | - |
| 1778196990 | 14.44° C | 45% | 1008.6 hPa | 0 mm | - | 21 W/m² | - |
| 1778196688 | 14.44° C | 45% | 1008.8 hPa | 0 mm | - | 23 W/m² | - |
| 1778196384 | 15° C | 45% | 1008.6 hPa | 0 mm | - | 25 W/m² | - |
| 1778196082 | 15° C | 43% | 1008.5 hPa | 0 mm | - | 49 W/m² | - |
| 1778195778 | 15° C | 44% | 1008.5 hPa | 0 mm | - | 55 W/m² | - |
| 1778195475 | 15° C | 42% | 1008.7 hPa | 0 mm | - | 50 W/m² | - |
| 1778195171 | 15.56° C | 42% | 1008.5 hPa | 0 mm | - | 64 W/m² | - |
| 1778194869 | 15.56° C | 40% | 1008.4 hPa | 0 mm | - | 86 W/m² | - |
| 1778194563 | 16.11° C | 41% | 1008.2 hPa | 0 mm | - | 106 W/m² | - |
| 1778194260 | 16.11° C | 43% | 1008.2 hPa | 0 mm | - | 130 W/m² | - |
| 1778193955 | 15.56° C | 43% | 1008 hPa | 0 mm | - | 148 W/m² | - |
| 1778193652 | 15° C | 44% | 1008.3 hPa | 0 mm | - | 67 W/m² | - |
| 1778193348 | 15° C | 44% | 1008.3 hPa | 0 mm | - | 64 W/m² | - |
| 1778193046 | 15° C | 43% | 1008.3 hPa | 0 mm | - | 65 W/m² | - |
| 1778192743 | 15.56° C | 46% | 1008.2 hPa | 0 mm | - | 77 W/m² | - |
| 1778192439 | 15.56° C | 43% | 1008.1 hPa | 0 mm | - | 83 W/m² | - |
| 1778192135 | 15.56° C | 42% | 1008.2 hPa | 0 mm | - | 190 W/m² | - |
| 1778191832 | 15° C | 45% | 1008.1 hPa | 0 mm | - | 60 W/m² | - |
| 1778191530 | 15.56° C | 42% | 1008.3 hPa | 0 mm | - | 65 W/m² | - |
| 1778191227 | 16.67° C | 43% | 1007.9 hPa | 0 mm | - | 79 W/m² | - |
| 1778190923 | 16.67° C | 42% | 1007.8 hPa | 0 mm | - | 164 W/m² | - |
* Rain latest hour (hover to see other rain measurements)
** Current wind speed in m/s (hover to see current wind gust speed)